Location: *
(6.0000°S, 32.3997°W)
Time: 23:08:38
(UTC+00:00)

VEP-3 - Pass Details

Date: 01 April 2020
Orbit: 1057 x 33686 km, 23.7° (Epoch: 06 June)

Event Time Altitude Azimuth Distance (km) Brightness Sun altitude
Rises 13:52:03 0° 294° (WNW) 13,562 8.4 77.9°
Reaches altitude 10° 14:01:05 10° 294° (WNW) 14,665 8.7 78.7°
Maximum altitude 23:03:43 66° 166° (SSE) 2,804 4.5 -42.8°
Enters shadow 23:03:53 66° 162° (SSE) 2,773 4.5 -42.9°
